Weather History for Flag Island, MN

Change the Weather History Date:

Saturday, February 16, 2013

  Actual Average Record
Temperature  
Mean Temperature -5 °F -  
Max Temperature 12 °F 17 °F 42 °F (2011)
Min Temperature -22 °F 0 °F -31 °F (1997)
Degree Days  
Heating Degree Days 70    
Moisture  
Dew Point -9 °F    
Average Humidity 76    
Maximum Humidity 92    
Minimum Humidity 62    
Precipitation  
Precipitation 0.00 in - - ()
Sea Level Pressure  
Sea Level Pressure 30.07 in    
Wind  
Wind Speed 3 mph (SSE)    
Max Wind Speed 18 mph    
Max Gust Speed -    
Visibility 9 miles    
Events      
Averages and records for this station are not official NWS values.
T = Trace of Precipitation, MM = Missing Value Source: NWS Daily Summary

Daily Weather History Graph

Daily Weather History Graph

Search for Another Location

Airport:

Trip Planner

Search our weather history database for the weather conditions in past years. The results will help you decide how hot, cold, wet, or windy it might be!

Date:

Astronomy

Feb. 16, 2013 Rise Set
Actual Time 7:26 AM CST 5:41 PM CST
Civil Twilight 6:53 AM CST 6:14 PM CST
Nautical Twilight 6:16 AM CST 6:51 PM CST
Astronomical Twilight 5:39 AM CST 7:28 PM CST
Moon 10:00 AM CST (2/16) 12:20 AM CST (2/16)
Length of Visible Light 11h 20m
Length of Day
10h 15m
Waxing Crescent, 39% of the Moon is Illuminated
Feb 16
Waxing Crescent
Feb 17
First Quarter
Feb 25
Full
Mar 4
Last Quarter
Mar 11
New

Hourly Weather History & Observations

Time (CST) Temp. Windchill Dew Point Humidity Pressure Visibility Wind Dir Wind Speed Gust Speed Precip Events Conditions
12:13 AM -5.8 °F - -7.6 °F 92% 30.16 in 10.0 mi Calm Calm - N/A   Clear
12:33 AM -5.8 °F - -9.4 °F 84% 30.16 in 10.0 mi Calm Calm - N/A   Clear
12:53 AM -5.8 °F - -9.4 °F 84% 30.15 in 10.0 mi Calm Calm - N/A   Clear
1:13 AM -5.8 °F - -9.4 °F 84% 30.15 in 10.0 mi Calm Calm - N/A   Clear
1:34 AM -5.8 °F - -9.4 °F 84% 30.15 in 10.0 mi Calm Calm - N/A   Clear
1:53 AM -7.6 °F - -11.2 °F 84% 30.14 in 10.0 mi Calm Calm - N/A   Clear
2:13 AM -9.4 °F - -13.0 °F 84% 30.14 in 10.0 mi Calm Calm - N/A   Clear
2:34 AM -9.4 °F - -14.8 °F 77% 30.13 in 10.0 mi Calm Calm - N/A   Clear
2:53 AM -11.2 °F - -16.6 °F 77% 30.13 in 10.0 mi Calm Calm - N/A   Clear
3:13 AM -11.2 °F - -14.8 °F 84% 30.13 in 10.0 mi Calm Calm - N/A   Clear
3:34 AM -11.2 °F - -16.6 °F 77% 30.13 in 10.0 mi Calm Calm - N/A   Clear
3:53 AM -11.2 °F - -16.6 °F 77% 30.13 in 10.0 mi Calm Calm - N/A   Clear
4:13 AM -14.8 °F - -18.4 °F 84% 30.13 in 10.0 mi Calm Calm - N/A   Clear
4:54 AM -18.4 °F - -23.8 °F 76% 30.12 in - Calm Calm - N/A   Unknown
5:13 AM -20.2 °F -30.9 °F -25.6 °F 76% 30.12 in 1.2 mi South 3.5 mph - N/A   Haze
5:33 AM -20.2 °F - -25.6 °F 76% 30.12 in 0.5 mi Calm Calm - N/A   Haze
5:54 AM -18.4 °F - -25.6 °F 70% 30.12 in 1.8 mi Calm Calm - N/A   Haze
6:13 AM -16.6 °F - -23.8 °F 70% 30.12 in 1.2 mi Calm Calm - N/A   Haze
6:33 AM -18.4 °F - -23.8 °F 76% 30.11 in 2.0 mi Calm Calm - N/A   Haze
6:54 AM -20.2 °F - -25.6 °F 76% 30.11 in 7.0 mi Calm Calm - N/A   Mostly Cloudy
7:13 AM -22.0 °F - -27.4 °F 76% 30.11 in 10.0 mi Calm Calm - N/A   Scattered Clouds
7:33 AM -22.0 °F - -27.4 °F 76% 30.11 in 10.0 mi Calm Calm - N/A   Clear
7:54 AM -20.2 °F - -25.6 °F 76% 30.11 in 10.0 mi Calm Calm - N/A   Clear
8:13 AM -18.4 °F - -25.6 °F 70% 30.11 in 10.0 mi Calm Calm - N/A   Clear
8:33 AM -20.2 °F - -25.6 °F 76% 30.10 in 10.0 mi Calm Calm - N/A   Clear
8:54 AM -18.4 °F - -23.8 °F 76% 30.11 in 10.0 mi Calm Calm - N/A   Clear
9:13 AM -16.6 °F - -20.2 °F 84% 30.10 in 10.0 mi Calm Calm - N/A   Clear
9:33 AM -14.8 °F - -18.4 °F 84% 30.11 in 10.0 mi Calm Calm - N/A   Clear
9:54 AM -11.2 °F -20.6 °F -16.6 °F 77% 30.11 in 7.0 mi South 3.5 mph - N/A   Clear
10:13 AM -11.2 °F -23.0 °F -16.6 °F 77% 30.10 in 10.0 mi SSE 4.6 mph - N/A   Clear
10:33 AM -11.2 °F -26.4 °F -14.8 °F 84% 30.10 in 10.0 mi SSE 6.9 mph - N/A   Clear
10:54 AM -9.4 °F -20.9 °F -13.0 °F 84% 30.10 in 7.0 mi South 4.6 mph - N/A   Clear
11:13 AM -7.6 °F -18.8 °F -13.0 °F 77% 30.11 in 10.0 mi SSE 4.6 mph - N/A   Clear
11:33 AM -5.8 °F -16.7 °F -9.4 °F 84% 30.11 in 10.0 mi SSE 4.6 mph - N/A   Clear
11:54 AM -4.0 °F -14.6 °F -7.6 °F 85% 30.10 in 10.0 mi SSE 4.6 mph - N/A   Clear
12:13 PM -2.2 °F -12.5 °F -5.8 °F 85% 30.10 in 10.0 mi SSE 4.6 mph - N/A   Clear
12:33 PM -0.4 °F -8.3 °F -5.8 °F 78% 30.09 in 10.0 mi SSE 3.5 mph - N/A   Clear
12:54 PM 1.4 °F -8.3 °F -2.2 °F 85% 30.09 in 10.0 mi SSE 4.6 mph - N/A   Unknown
1:13 PM 3.2 °F -10.3 °F 1.4 °F 92% 30.08 in 10.0 mi SSE 8.1 mph - N/A   Clear
1:33 PM 6.8 °F -5.9 °F 3.2 °F 85% 30.08 in 10.0 mi SSE 8.1 mph - N/A   Clear
1:54 PM 6.8 °F -5.9 °F 3.2 °F 85% 30.07 in 10.0 mi SSE 8.1 mph - N/A   Clear
2:13 PM 6.8 °F -4.8 °F 3.2 °F 85% 30.07 in 10.0 mi SSE 6.9 mph - N/A   Clear
2:33 PM 6.8 °F -2.0 °F 3.2 °F 85% 30.07 in 10.0 mi South 4.6 mph - N/A   Clear
2:54 PM 6.8 °F -2.0 °F 3.2 °F 85% 30.05 in 10.0 mi South 4.6 mph - N/A   Clear
3:13 PM 6.8 °F -0.1 °F 3.2 °F 85% 30.05 in 10.0 mi South 3.5 mph - N/A   Clear
3:34 PM 8.6 °F -1.3 °F 1.4 °F 73% 30.04 in 10.0 mi South 5.8 mph - N/A   Clear
3:53 PM 8.6 °F 2.0 °F -0.4 °F 67% 30.04 in 10.0 mi South 3.5 mph - N/A   Clear
4:13 PM 8.6 °F 2.0 °F -0.4 °F 67% 30.03 in 10.0 mi SSE 3.5 mph - N/A   Clear
4:34 PM 10.4 °F 4.0 °F -0.4 °F 62% 30.04 in 10.0 mi SSE 3.5 mph - N/A   Clear
4:53 PM 8.6 °F 0.1 °F -0.4 °F 67% 30.03 in 10.0 mi SSE 4.6 mph - N/A   Clear
5:14 PM 6.8 °F - -0.4 °F 72% 30.03 in 10.0 mi Calm Calm - N/A   Clear
5:33 PM 8.6 °F 2.0 °F -0.4 °F 67% 30.03 in 10.0 mi ESE 3.5 mph - N/A   Mostly Cloudy
5:53 PM 10.4 °F 2.2 °F -0.4 °F 62% 30.03 in 10.0 mi ESE 4.6 mph - N/A   Overcast
6:13 PM 10.4 °F 2.2 °F 1.4 °F 67% 30.02 in 10.0 mi ESE 4.6 mph - N/A   Overcast
6:33 PM 12.2 °F 2.9 °F 1.4 °F 62% 30.02 in 10.0 mi ESE 5.8 mph - N/A   Overcast
6:53 PM 12.2 °F 1.7 °F 1.4 °F 62% 30.01 in 10.0 mi SE 6.9 mph - N/A   Overcast
7:13 PM 10.4 °F -1.5 °F 1.4 °F 67% 30.01 in 10.0 mi SE 8.1 mph - N/A   Overcast
7:33 PM 10.4 °F -1.5 °F -0.4 °F 62% 30.00 in 10.0 mi SE 8.1 mph - N/A   Overcast
7:53 PM 8.6 °F -3.7 °F -0.4 °F 67% 29.99 in 10.0 mi SE 8.1 mph - N/A   Scattered Clouds
8:13 PM 8.6 °F -4.7 °F -0.4 °F 67% 29.99 in 10.0 mi SE 9.2 mph - N/A   Clear
8:33 PM 8.6 °F -6.3 °F -0.4 °F 67% 29.98 in 10.0 mi SE 11.5 mph - N/A   Clear
8:53 PM 8.6 °F -7.0 °F -0.4 °F 67% 29.97 in 10.0 mi SE 12.7 mph - N/A   Clear
9:13 PM 8.6 °F -6.3 °F -0.4 °F 67% 29.96 in 10.0 mi SE 11.5 mph - N/A   Clear
9:33 PM 8.6 °F -7.0 °F -0.4 °F 67% 29.96 in 10.0 mi SE 12.7 mph - N/A   Scattered Clouds
9:54 PM 8.6 °F -7.0 °F -0.4 °F 67% 29.95 in 10.0 mi SSE 12.7 mph - N/A   Mostly Cloudy
10:13 PM 3.2 °F -12.2 °F -2.2 °F 78% 29.95 in 10.0 mi SSE 10.4 mph - N/A   Overcast
10:33 PM 8.6 °F -7.0 °F 1.4 °F 73% 29.94 in 10.0 mi SSE 12.7 mph - N/A   Overcast
10:54 PM 10.4 °F -7.7 °F 3.2 °F 73% 29.93 in 10.0 mi SSE 18.4 mph - N/A   Overcast
11:13 PM 8.6 °F -10.0 °F 3.2 °F 79% 29.92 in 10.0 mi SSE 18.4 mph - N/A   Overcast
11:33 PM 10.4 °F -7.7 °F 3.2 °F 73% 29.91 in 10.0 mi SSE 18.4 mph - N/A   Overcast
11:53 PM 10.4 °F -7.7 °F 3.2 °F 73% 29.91 in 10.0 mi SSE 18.4 mph - N/A   Overcast